Weather History for Idabel, OK

Change the Weather History Date:

Tuesday, September 18, 2012

  Actual Average (KDEQ) Record (KDEQ)
Temperature  
Mean Temperature 70 °F 73 °F  
Max Temperature 82 °F 86 °F 100 °F (2005)
Min Temperature 55 °F 60 °F 40 °F (1981)
Degree Days  
Heating Degree Days 0 0  
Month to date heating degree days 0  
Since 1 July heating degree days 0  
Cooling Degree Days 4 8  
Month to date cooling degree days 203  
Year to date cooling degree days 1795  
Growing Degree Days 20 (Base 50)    
Moisture  
Dew Point 50 °F    
Average Humidity 60    
Maximum Humidity 100    
Minimum Humidity 16    
Precipitation  
Precipitation 0.00 in 0.10 in 1.05 in (1952)
Month to date precipitation 2.19  
Year to date precipitation 33.78  
Snow  
Snow 0.00 in - - ()
Month to date snowfall  
Since 1 July snowfall  
Since 1 September snowfall  
Snow Depth -    
Sea Level Pressure  
Sea Level Pressure 29.99 in    
Wind  
Wind Speed 5 mph (North)    
Max Wind Speed 16 mph    
Max Gust Speed 21 mph    
Visibility 10 miles    
Events      
T = Trace of Precipitation, MM = Missing Value Source: NWS Daily Summary

Daily Weather History Graph

Daily Weather History Graph

Search for Another Location

Airport:

Trip Planner

Search our weather history database for the weather conditions in past years. The results will help you decide how hot, cold, wet, or windy it might be!

Date:

Astronomy

Sep. 18, 2012 Rise Set
Actual Time 7:05 AM CDT 7:21 PM CDT
Civil Twilight 6:40 AM CDT 7:45 PM CDT
Nautical Twilight 6:10 AM CDT 8:15 PM CDT
Astronomical Twilight 5:41 AM CDT 8:44 PM CDT
Moon 9:54 AM CDT (9/18) 8:57 PM CDT (9/18)
Length of Visible Light 13h 05m
Length of Day
12h 15m
Waxing Crescent, 9% of the Moon is Illuminated
Sep 18
Waxing Crescent
Sep 22
First Quarter
Sep 29
Full
Oct 8
Last Quarter
Oct 15
New

Hourly Weather History & Observations

Time (CDT) Temp. Dew Point Humidity Pressure Visibility Wind Dir Wind Speed Gust Speed Precip Events Conditions
12:15 AM 64.4 °F 62.6 °F 94% 29.88 in 7.0 mi Calm Calm - N/A   Clear
12:35 AM 64.4 °F 62.6 °F 94% 29.88 in 4.0 mi Calm Calm - N/A   Clear
1:15 AM 64.4 °F 62.6 °F 94% 29.87 in 10.0 mi Calm Calm - N/A   Clear
1:55 AM 64.4 °F 62.6 °F 94% 29.87 in 4.0 mi WSW 3.5 mph - N/A   Clear
2:15 AM 62.6 °F 60.8 °F 94% 29.88 in 1.8 mi Calm Calm - N/A   Unknown
2:35 AM 62.6 °F 60.8 °F 94% 29.89 in 0.5 mi NW 4.6 mph - N/A   Scattered Clouds
2:55 AM 62.6 °F 60.8 °F 94% 29.90 in 10.0 mi NNW 8.1 mph - N/A   Clear
3:15 AM 62.6 °F 60.8 °F 94% 29.91 in 10.0 mi North 5.8 mph - N/A   Clear
3:35 AM 62.6 °F 60.8 °F 94% 29.91 in 10.0 mi North 5.8 mph - N/A   Clear
3:55 AM 62.6 °F 60.8 °F 94% 29.90 in 10.0 mi North 4.6 mph - N/A   Clear
4:15 AM 62.6 °F 60.8 °F 94% 29.90 in 10.0 mi Calm Calm - N/A   Clear
4:35 AM 62.6 °F 60.8 °F 94% 29.90 in 10.0 mi Calm Calm - N/A   Clear
4:55 AM 60.8 °F 60.8 °F 100% 29.90 in 7.0 mi Calm Calm - N/A   Clear
5:15 AM 60.8 °F 60.8 °F 100% 29.91 in 10.0 mi Calm Calm - N/A   Clear
5:35 AM 60.8 °F 60.8 °F 100% 29.91 in 10.0 mi Calm Calm - N/A   Clear
5:55 AM 60.8 °F 60.8 °F 100% 29.91 in 10.0 mi Calm Calm - N/A   Clear
6:15 AM 60.8 °F 60.8 °F 100% 29.92 in 10.0 mi NW 3.5 mph - N/A   Clear
6:35 AM 60.8 °F 60.8 °F 100% 29.92 in 10.0 mi NNW 5.8 mph - N/A   Clear
6:55 AM 62.6 °F 60.8 °F 94% 29.93 in 10.0 mi NNW 6.9 mph - N/A   Scattered Clouds
7:15 AM 62.6 °F 60.8 °F 94% 29.92 in 10.0 mi North 4.6 mph - N/A   Scattered Clouds
7:35 AM 62.6 °F 60.8 °F 94% 29.93 in 10.0 mi NNW 6.9 mph - N/A   Clear
7:55 AM 62.6 °F 60.8 °F 94% 29.94 in 10.0 mi NNW 6.9 mph - N/A   Clear
8:15 AM 64.4 °F 62.6 °F 94% 29.96 in 10.0 mi NNW 6.9 mph - N/A   Scattered Clouds
8:35 AM 64.4 °F 62.6 °F 94% 29.98 in 10.0 mi NNW 8.1 mph - N/A   Clear
8:55 AM 64.4 °F 62.6 °F 94% 29.99 in 10.0 mi NNW 8.1 mph - N/A   Mostly Cloudy
9:15 AM 64.4 °F 62.6 °F 94% 30.01 in 10.0 mi NNW 9.2 mph 17.3 mph N/A   Overcast
9:35 AM 64.4 °F 62.6 °F 94% 30.01 in 10.0 mi North 10.4 mph - N/A   Overcast
9:55 AM 68.0 °F 62.6 °F 83% 30.00 in 10.0 mi North 5.8 mph - N/A   Scattered Clouds
10:15 AM 69.8 °F 60.8 °F 73% 30.01 in 10.0 mi North 9.2 mph - N/A   Clear
10:35 AM 71.6 °F 59.0 °F 64% 30.02 in 10.0 mi NNW 9.2 mph - N/A   Clear
10:55 AM 73.4 °F 59.0 °F 61% 30.02 in 10.0 mi NNW 9.2 mph - N/A   Clear
11:15 AM 75.2 °F 57.2 °F 53% 30.02 in 10.0 mi North 13.8 mph - N/A   Scattered Clouds
11:35 AM 77.0 °F 55.4 °F 47% 30.03 in 10.0 mi North 9.2 mph - N/A   Scattered Clouds
11:55 AM 77.0 °F 55.4 °F 47% 30.03 in 10.0 mi North 11.5 mph - N/A   Clear
12:15 PM 78.8 °F 53.6 °F 42% 30.03 in 10.0 mi NNE 6.9 mph - N/A   Clear
12:35 PM 78.8 °F 51.8 °F 39% 30.04 in 10.0 mi NNE 9.2 mph - N/A   Clear
12:55 PM 78.8 °F 46.4 °F 32% 30.04 in 10.0 mi North 9.2 mph - N/A   Clear
1:15 PM 78.8 °F 46.4 °F 32% 30.04 in 10.0 mi North 9.2 mph 17.3 mph N/A   Clear
1:35 PM 80.6 °F 41.0 °F 24% 30.04 in 10.0 mi North 11.5 mph 17.3 mph N/A   Clear
1:55 PM 80.6 °F 41.0 °F 24% 30.04 in 10.0 mi NNW 8.1 mph 17.3 mph N/A   Clear
2:15 PM 80.6 °F 41.0 °F 24% 30.04 in 10.0 mi North 10.4 mph - N/A   Clear
2:35 PM 80.6 °F 39.2 °F 23% 30.04 in 10.0 mi North 11.5 mph 20.7 mph N/A   Clear
2:55 PM 82.4 °F 35.6 °F 19% 30.03 in 10.0 mi NE 8.1 mph 19.6 mph N/A   Clear
3:15 PM 82.4 °F 37.4 °F 20% 30.03 in 10.0 mi NNW 8.1 mph - N/A   Clear
3:35 PM 82.4 °F 35.6 °F 19% 30.03 in 10.0 mi NNW 16.1 mph 20.7 mph N/A   Clear
3:55 PM 82.4 °F 32.0 °F 16% 30.03 in 10.0 mi NNW 11.5 mph 19.6 mph N/A   Clear
4:15 PM 82.4 °F 32.0 °F 16% 30.03 in 10.0 mi NNW 13.8 mph 19.6 mph N/A   Clear
4:35 PM 80.6 °F 32.0 °F 17% 30.02 in 10.0 mi North 12.7 mph 20.7 mph N/A   Clear
4:55 PM 80.6 °F 32.0 °F 17% 30.02 in 10.0 mi North 13.8 mph 17.3 mph N/A   Clear
5:15 PM 80.6 °F 32.0 °F 17% 30.02 in 10.0 mi North 12.7 mph 17.3 mph N/A   Clear
5:35 PM 80.6 °F 32.0 °F 17% 30.02 in 10.0 mi NNE 9.2 mph - N/A   Clear
5:55 PM 80.6 °F 32.0 °F 17% 30.02 in 10.0 mi NE 8.1 mph - N/A   Clear
6:15 PM 78.8 °F 33.8 °F 20% 30.02 in 10.0 mi NE 10.4 mph - N/A   Clear
6:35 PM 78.8 °F 33.8 °F 20% 30.02 in 10.0 mi NE 8.1 mph - N/A   Clear
6:55 PM 75.2 °F 33.8 °F 22% 30.03 in 10.0 mi NE 6.9 mph - N/A   Clear
7:15 PM 73.4 °F 35.6 °F 25% 30.03 in 10.0 mi NE 5.8 mph - N/A   Clear
7:35 PM 69.8 °F 35.6 °F 28% 30.04 in 10.0 mi NE 4.6 mph - N/A   Clear
7:55 PM 66.2 °F 35.6 °F 32% 30.04 in 10.0 mi NE 3.5 mph - N/A   Clear
8:15 PM 64.4 °F 37.4 °F 37% 30.05 in 10.0 mi NE 4.6 mph - N/A   Clear
8:35 PM 62.6 °F 41.0 °F 45% 30.05 in 10.0 mi NE 3.5 mph - N/A   Clear
8:55 PM 60.8 °F 39.2 °F 45% 30.06 in 10.0 mi Calm Calm - N/A   Clear
9:15 PM 62.6 °F 39.2 °F 42% 30.07 in 10.0 mi NE 5.8 mph - N/A   Clear
9:57 PM 62.6 °F 41.0 °F 45% 30.08 in 10.0 mi Calm Calm - N/A   Clear
10:35 PM 59.0 °F 42.8 °F 55% 30.09 in 10.0 mi NNE 3.5 mph - N/A   Clear
10:37 PM 59.0 °F 44.6 °F 59% 30.09 in 10.0 mi NNE 3.5 mph - N/A   Clear
10:57 PM 57.2 °F 44.6 °F 63% 30.09 in 10.0 mi North 4.6 mph - N/A   Clear
11:17 PM 57.2 °F 44.6 °F 63% 30.10 in 10.0 mi North 3.5 mph - N/A   Clear
11:37 PM 55.4 °F 44.6 °F 67% 30.10 in 10.0 mi North 3.5 mph - N/A   Clear